TimePDT,TemperatureF,Dew PointF,Humidity,Sea Level PressureIn,VisibilityMPH,Wind Direction,Wind SpeedMPH,Gust SpeedMPH,PrecipitationIn,Events,Conditions,WindDirDegrees,DateUTC
12:00 AM,62.6,55.4,77,29.79,30.0,East,6.9,-,N/A,,Scattered Clouds,100,2013-08-23 07:00:00
1:00 AM,60.8,55.4,82,29.80,30.0,SE,4.6,-,N/A,,Partly Cloudy,140,2013-08-23 08:00:00
2:00 AM,59.0,53.6,82,29.80,30.0,ESE,6.9,-,N/A,,Mostly Cloudy,110,2013-08-23 09:00:00
3:00 AM,59.0,55.4,88,29.80,30.0,SE,6.9,-,N/A,,Mostly Cloudy,140,2013-08-23 10:00:00
4:00 AM,59.0,55.4,88,29.81,30.0,ESE,10.4,-,N/A,,Mostly Cloudy,110,2013-08-23 11:00:00
5:00 AM,60,55,78,29.81,28,SE,10.4,,,,Overcast,130,2013-08-23 12:00:00
5:00 AM,60.8,55.4,82,29.81,30.0,ESE,9.2,-,N/A,,Overcast,120,2013-08-23 12:00:00
6:00 AM,60.8,53.6,77,29.81,30.0,ESE,16.1,-,N/A,,Overcast,120,2013-08-23 13:00:00
7:00 AM,60.8,53.6,77,29.82,30.0,ESE,11.5,18.4,N/A,,Overcast,120,2013-08-23 14:00:00
8:00 AM,62.6,55.4,77,29.83,30.0,ESE,12.7,-,N/A,,Overcast,110,2013-08-23 15:00:00
9:00 AM,64.4,55.4,73,29.84,30.0,ESE,19.6,-,N/A,,Overcast,120,2013-08-23 16:00:00
10:00 AM,62.6,57.2,82,29.85,30.0,ESE,18.4,24.2,N/A,,Overcast,110,2013-08-23 17:00:00
11:00 AM,67,57,63,29.86,19,ESE,20.7,,,,Scattered Clouds,120,2013-08-23 18:00:00
11:00 AM,68.0,57.2,68,29.86,20.0,ESE,20.7,-,N/A,,Mostly Cloudy,110,2013-08-23 18:00:00
12:00 PM,68.0,57.2,68,29.86,30.0,SE,18.4,26.5,N/A,,Mostly Cloudy,130,2013-08-23 19:00:00
1:00 PM,68.0,57.2,68,29.87,30.0,SE,19.6,-,N/A,,Overcast,140,2013-08-23 20:00:00
2:00 PM,69.8,57.2,64,29.87,20.0,SE,15.0,21.9,N/A,,Mostly Cloudy,130,2013-08-23 21:00:00
3:00 PM,71.6,57.2,60,29.86,20.0,SE,13.8,19.6,N/A,,Overcast,130,2013-08-23 22:00:00
4:00 PM,69.8,55.4,60,29.86,20.0,South,13.8,-,N/A,,Mostly Cloudy,170,2013-08-23 23:00:00
5:00 PM,69.8,55.4,60,29.86,20.0,SSE,13.8,-,N/A,,Overcast,150,2013-08-24 00:00:00
6:00 PM,69.8,55.4,60,29.86,20.0,SE,9.2,-,N/A,,Overcast,140,2013-08-24 01:00:00
7:00 PM,68.0,53.6,60,29.85,30.0,South,11.5,-,N/A,,Overcast,170,2013-08-24 02:00:00
8:00 PM,66.2,53.6,64,29.86,15.0,SE,5.8,-,N/A,,Overcast,140,2013-08-24 03:00:00
9:00 PM,64.4,53.6,68,29.87,15.0,SSW,2.3,-,N/A,,Overcast,200,2013-08-24 04:00:00
9:47 PM,62.6,59.0,88,29.88,15.0,WNW,4.6,-,N/A,Rain,Light Rain,300,2013-08-24 04:47:00
10:00 PM,62.6,59.0,88,29.88,15.0,West,3.5,-,N/A,Rain,Light Rain,280,2013-08-24 05:00:00
11:00 PM,62.6,59.0,88,29.88,10.0,SE,2.3,-,N/A,Rain,Light Rain,130,2013-08-24 06:00:00